| time (UTC) | temp C | wind direction | speed KPH | gust KPH | rain 1hr cm | rain 24hr cm | rain mn cm | humidity % | barometer mb |
| 20260507080833 | 5 | 326 | 0.0 | 0.0 | 0.00 | 0.03 | 0.00 | 90 | 1015.3 |
| 20260507075813 | 5 | 325 | 0.0 | 0.0 | 0.00 | 0.03 | 0.00 | 90 | 1015.1 |
| 20260507074813 | 5 | 360 | 0.0 | 0.0 | 0.00 | 0.03 | 0.00 | 90 | 1015.2 |
| 20260507073813 | 5 | 325 | 0.0 | 0.0 | 0.00 | 0.05 | 0.00 | 89 | 1015.0 |
| 20260507072813 | 5 | 327 | 0.0 | 0.0 | 0.00 | 0.08 | 0.00 | 89 | 1015.2 |
| 20260507071813 | 5 | 324 | 0.0 | 0.0 | 0.00 | 0.10 | 0.00 | 89 | 1015.1 |
| 20260507070832 | 6 | 323 | 0.0 | 0.0 | 0.00 | 0.15 | 0.00 | 89 | 1015.1 |
| 20260507065812 | 6 | 326 | 0.0 | 0.0 | 0.00 | 0.20 | 0.00 | 89 | 1015.1 |
| 20260507064812 | 6 | 323 | 0.0 | 0.0 | 0.00 | 0.25 | 0.00 | 89 | 1015.1 |
| 20260507063812 | 6 | 323 | 0.0 | 0.0 | 0.00 | 0.25 | 0.00 | 90 | 1015.2 |
| 20260507062812 | 6 | 330 | 0.0 | 1.6 | 0.00 | 0.25 | 0.00 | 90 | 1015.4 |
| 20260507061812 | 6 | 323 | 0.0 | 0.0 | 0.00 | 0.28 | 0.00 | 91 | 1015.2 |
| 20260507060812 | 6 | 325 | 0.0 | 0.0 | 0.00 | 0.30 | 0.00 | 92 | 1015.2 |
| 20260507055812 | 6 | 319 | 0.0 | 0.0 | 0.00 | 0.33 | 0.00 | 91 | 1015.3 |
| 20260507054812 | 6 | 313 | 0.0 | 0.0 | 0.00 | 0.41 | 0.00 | 91 | 1015.3 |
| 20260507014810 | 8 | 314 | 0.0 | 0.0 | 0.00 | 1.73 | 1.27 | 83 | 1014.9 |
| 20260507013809 | 8 | 311 | 0.0 | 0.0 | 0.00 | 1.78 | 1.27 | 83 | 1014.8 |
| 20260507012809 | 8 | 314 | 0.0 | 0.0 | 0.00 | 1.78 | 1.27 | 80 | 1014.7 |
| 20260507011809 | 9 | 313 | 0.0 | 0.0 | 0.00 | 1.80 | 1.27 | 79 | 1014.4 |
| 20260506225808 | 15 | 28 | 4.8 | 9.7 | 0.00 | 2.29 | 1.27 | 57 | 1013.7 |
| 20260506224808 | 14 | 341 | 0.0 | 4.8 | 0.00 | 2.29 | 1.27 | 59 | 1013.7 |
| 20260506223808 | 14 | 22 | 1.6 | 4.8 | 0.00 | 2.29 | 1.27 | 56 | 1013.9 |
| 20260506222808 | 14 | 325 | 0.0 | 0.0 | 0.00 | 2.29 | 1.27 | 57 | 1013.9 |
| 20260506221828 | 14 | 321 | 0.0 | 0.0 | 0.00 | 2.29 | 1.27 | 57 | 1014.0 |
| 20260506220808 | 14 | 19 | 1.6 | 4.8 | 0.00 | 2.31 | 1.27 | 57 | 1014.0 |
| 20260506175806 | 15 | 339 | 3.2 | 9.7 | 0.00 | 2.72 | 1.27 | 56 | 1013.2 |
| 20260506174806 | 15 | 345 | 4.8 | 12.9 | 0.00 | 2.72 | 1.27 | 57 | 1013.5 |